STARLINK-34148 (64111 NORAD) Tracking and Keplerian Element Data

This shows tracking and keplerian element data for the satellite.

Feedback or suggestion? Click here.




ElementValue
Catalog64111
NameSTARLINK-34148
Epoch Orbit3370
Epoch Day354.13670137
Epoch Year2025
RAAN36.2056
Inclination53.1603
Eccentricity0.0001523
Argument of Perigee83.4402
Mean Anonmoly276.6772
Mean Motion15.30205891
Decay Rate0.00017549
L11 64111U 25110R 25354.13670137 .00017549 00000+0 60312-3 0 9999
L22 64111 53.1603 36.2056 0001523 83.4402 276.6772 15.30205891 33701



Live tracking and technical data element details for STARLINK-34148 (NORAD 64111). STARLINK-34148 can be tracked NOW for your location showing map with azimuth and elevation plus other details from your city location.







IsCatalogInMostPopularTable: catalog: 64111, numindb: 11
Update: records affected: 1



GetName: 64111 STARLINK-34148

Hit Count: updated at: Tue, 21 Apr 2026 20:12:33 GMT